Terminal Aerodrome Forecast
Issued by NWS Chicago, IL

Home | Current Version | Previous Version | Text Only | Print | Product List | Glossary On
Versions: 1 2 3 4 5 6 7 8 9 10 11 12 13 14 15 16 17 18 19 20 21 22 23 24
282
FTUS43 KLOT 121504 AAA
TAFRFD
TAF AMD
KRFD 121504Z 1215/1312 29009KT 6SM -SN BKN025 OVC040
     FM121700 31014G22KT P6SM BKN025
     FM122000 32020G29KT P6SM BKN035
     FM130200 33014G22KT P6SM FEW035=

USA.gov is the U.S. government's official web portal to all federal, state and local government web resources and services.